Location: Lake Arresoe
(56.0000°N, 12.5000°E)
Time: 11:24:29
(UTC+02:00)

Resurs 1-4 Rocket - Pass Details

Date: 22 August 2020
Orbit: 799 x 815 km, 98.6° (Epoch: 23 September)

Event Time Altitude Azimuth Distance (km) Brightness Sun altitude
Rises 03:57:48 0° 14° (NNE) 3,329 6.5 -14.1°
Reaches altitude 10° 04:00:14 10° 8° (N) 2,393 5.4 -13.9°
Maximum altitude 04:05:13 44° 298° (WNW) 1,097 2.7 -13.4°
Enters shadow 04:08:45 18° 234° (SW) 1,859 3.4 -13.1°
